Weather in Saransk

Russia / Republic of Mordovia     54°11′13″N   45°11′01″E
temp.,
°C
wind,
m/s
gust,
m/s
humid.,
%
clouds,
%
prec.,
mm/h
press.,
hPa
HPBL,
m
17 september, fri
fri1700:00+7nw4655100 0.0 1017622
03:00+7nw3660100 0.0 1018365
06:00+6nw3565100 0.0 1018445
09:00+7nw3460100 0.0 1018719
12:00+8wnw3355100 0.0 10181230
15:00+9wnw3451100 0.1 10181301
18:00+7wnw345594 0.0 101892
21:00+5nw246487 0.0 101966
18 september, sat
sat1800:00+3nnw22825 0.0 102020
03:00+2nw22792 0.0 102115
06:00+1nnw22835 0.0 102228
09:00+7n366214 0.0 1023794
12:00+8nne345497 0.0 10231257
15:00+9nne445039 0.0 10231286
18:00+7nne235982 0.0 102441
21:00+5nw1164100 0.0 102410
19 september, sun
sun1900:00+4ne1170100 0.0 102510
03:00+3ene2269100 0.0 102520
06:00+2ene2271100 0.0 102538
09:00+7e455396 0.0 1026509
12:00+11ese344297 0.0 10251122
15:00+12ese4439100 0.0 10231265
18:00+9e3649100 0.0 1023173
21:00+8e51054100 0.0 1022337
20 september, mon
mon2000:00+7e51156100 0.1 1022398
03:00+5ese61387100 1.8 1021533
06:00+5e81593100 7.3 1020493
09:00+5e81594100 12.8 1020681
12:00+6ese81493100 1.3 1019728
15:00+6ese71394100 2.6 1019689
18:00+6ese71494100 2.9 1019649
21:00+6ese71493100 3.6 1019667
21 september, tue
tue2100:00+7ese81592100 0.4 1018714
03:00+7ese71495100 2.1 1016684
06:00+7ese71593100 3.4 1015750
09:00+8ese71494100 6.6 1014702
12:00+8se61193100 1.5 1014640
15:00+8se5995100 2.2 1013492
18:00+8ese4896100 0.8 1013385
21:00+8se3796100 0.9 1013253